Vorticity
5 8 12 7 6 14 19 13 6 6 5 5 2 9 8 14 10 12 5 8 11 11 15 19 17 17 13 10 11 10 11 9 11 11 9 7 9 6 10 8 11 20 18 1 13 12 8 5 16 -2 6 18 16 13
8 7 14 9 1 5 18 10 9 7 4 2 8 6 15 10 7 9 9 8 9 16 16 20 17 14 12 10 10 9 10 8 10 10 7 8 7 7 8 6 11 10 12 18 10 6 14 10 9 12 10 5 3 11
10 11 12 8 8 5 13 15 9 6 3 5 6 10 10 12 7 7 6 8 8 18 24 19 11 10 13 13 11 9 9 9 8 6 5 5 5 7 9 7 10 9 10 11 11 19 10 1 12 11 9 11 14 9
8 8 7 8 6 7 7 15 7 3 11 8 8 7 14 10 10 7 5 9 12 19 23 14 13 16 13 9 10 10 7 8 9 6 6 6 7 8 7 8 8 9 13 14 13 9 13 17 8 5 12 12 8 8
16 5 6 10 4 9 7 12 8 6 6 5 9 9 16 10 8 7 6 9 18 21 17 16 16 9 11 10 8 8 10 9 7 7 8 9 10 9 10 8 11 14 11 11 12 11 12 12 14 18 9 7 11 16
30 5 5 9 7 9 12 9 7 5 5 6 6 16 11 10 6 5 8 11 15 16 20 15 6 9 10 12 7 11 10 10 10 10 10 12 11 16 10 12 16 19 16 14 11 10 10 13 11 16 19 19 9 10
17 14 10 7 5 15 12 5 5 6 4 6 10 22 7 9 6 7 8 12 16 14 11 11 8 8 9 9 9 10 11 9 10 11 13 16 16 20 20 18 20 16 15 15 15 13 15 15 15 13 14 16 20 16
13 14 19 3 17 14 6 5 3 7 5 7 13 14 11 7 5 7 11 10 13 14 14 9 8 12 10 8 9 11 8 10 9 14 16 20 20 20 21 22 22 21 19 19 19 16 13 13 14 14 13 15 14 20
22 8 12 17 13 6 3 2 6 6 5 12 19 10 13 6 6 6 9 10 16 12 12 10 10 11 10 10 9 12 11 12 13 15 20 27 22 24 25 24 21 20 17 16 16 15 13 11 10 14 14 13 15 16
11 19 18 10 7 5 5 4 3 6 9 17 17 14 9 6 9 7 10 16 14 11 9 10 8 15 16 13 13 16 14 14 14 22 26 29 26 23 23 17 14 10 12 15 9 10 9 12 9 9 13 12 11 13
17 18 9 7 7 2 4 1 6 -2 15 19 13 11 3 7 8 11 15 17 10 12 8 8 12 13 11 12 15 17 17 15 22 30 26 20 20 19 15 11 7 10 18 20 4 4 15 13 16 12 14 13 11 11
19 10 8 6 5 3 6 4 7 14 18 16 9 6 6 8 13 18 15 12 10 8 11 11 7 11 16 15 18 17 21 30 42 20 24 21 15 12 4 13 20 20 21 19 20 22 22 17 18 11 12 13 12 10
11 6 7 6 5 5 5 7 13 14 21 9 6 6 11 3 13 15 9 9 11 8 6 8 12 14 17 18 23 27 31 33 25 23 15 15 14 11 11 12 11 12 13 14 13 9 11 23 22 17 13 11 9 7
10 3 4 6 8 7 3 7 17 19 13 8 5 8 11 11 13 11 11 10 7 9 12 10 15 19 19 24 24 28 27 24 25 28 12 11 8 7 6 7 6 7 7 8 8 3 -1 -6 1 15 18 16 12 9
8 4 6 10 11 4 9 14 25 10 6 6 8 7 12 10 12 10 9 9 9 10 11 14 16 25 22 28 26 24 22 17 15 13 16 14 14 16 14 12 12 12 9 9 9 8 8 6 -0 0 8 14 12 15
6 5 9 12 -1 8 4 23 16 7 3 6 9 12 8 14 12 10 9 8 8 7 12 14 18 24 24 25 24 19 20 18 15 16 17 18 13 10 10 12 14 17 20 25 28 25 22 25 28 24 21 7 4 8
7 4 7 3 5 6 21 23 6 8 4 7 9 10 11 12 9 8 10 11 10 14 14 20 23 21 21 21 22 21 18 20 21 19 19 20 20 19 18 20 18 19 22 21 21 21 21 19 17 20 20 17 10 4
9 3 9 5 12 12 27 2 8 10 6 6 13 10 13 10 8 11 9 8 13 16 19 19 23 23 23 22 21 19 19 19 19 20 19 19 18 17 16 15 14 11 11 11 11 11 14 18 19 15 10 22 17 16
4 6 6 7 19 26 7 7 7 10 7 11 9 14 11 8 9 10 9 9 18 19 21 22 24 24 22 21 22 18 17 20 24 22 18 17 19 19 17 16 13 10 8 6 8 8 8 7 9 15 18 14 13 18
6 4 5 17 28 8 5 9 11 7 10 8 13 12 9 10 8 7 10 19 20 20 21 20 20 20 22 18 19 18 17 20 23 24 20 18 16 17 18 22 22 18 13 9 6 7 11 10 7 7 8 11 20 13
7 3 27 31 2 6 8 11 8 9 10 13 13 9 6 9 9 12 17 19 19 15 19 22 22 20 20 20 19 18 17 18 17 20 24 24 20 21 21 20 22 23 25 26 23 16 14 15 14 18 11 8 7 10
8 23 20 6 4 6 13 10 8 7 15 10 12 7 7 9 11 14 17 18 17 18 20 20 19 18 20 20 17 17 16 18 19 17 19 24 30 26 23 22 22 21 22 24 27 29 27 24 20 17 17 19 12 10
20 22 10 4 5 13 9 11 10 11 12 9 8 9 8 10 15 19 18 20 18 19 19 20 18 18 20 18 16 16 16 17 19 18 16 19 23 25 22 20 19 19 19 22 22 23 24 26 27 25 18 16 18 16
24 12 6 4 13 10 12 7 12 14 9 6 9 7 10 15 17 17 18 16 16 20 18 20 17 19 17 17 15 17 17 17 17 19 19 17 18 19 21 19 17 18 18 18 19 19 19 20 22 24 23 19 16 17
6 7 8 12 8 13 8 11 11 12 5 8 9 6 16 19 16 23 16 14 19 18 17 21 18 17 19 17 15 17 19 19 18 19 19 21 17 16 20 22 16 15 20 21 21 19 19 19 19 21 24 25 19 16
4 7 9 12 10 9 10 12 11 7 10 8 6 11 18 15 23 20 12 15 16 18 15 21 21 18 17 16 15 17 22 23 21 20 18 20 21 20 17 16 18 14 14 13 16 20 19 19 19 19 20 25 26 16
7 10 14 11 8 10 13 12 7 9 5 7 10 17 18 21 20 17 13 13 16 18 15 17 23 21 18 14 13 17 22 24 27 25 21 19 17 16 19 19 18 19 16 13 12 15 17 16 15 18 20 21 26 24
9 13 12 7 13 12 9 7 8 5 7 10 17 20 27 18 15 11 13 10 13 17 16 14 20 24 21 14 14 17 20 20 24 28 30 29 24 20 18 17 17 18 18 16 16 15 16 17 16 16 19 23 24 25
13 13 8 11 13 11 6 9 5 8 8 17 18 20 17 18 14 12 13 10 7 15 18 12 15 22 23 19 14 15 19 20 19 22 26 26 27 27 24 23 22 20 19 19 19 17 17 20 20 19 16 17 20 22
13 7 12 12 12 7 7 5 8 13 16 15 17 17 19 17 14 10 11 13 11 5 15 19 12 14 22 23 19 14 15 18 19 19 21 25 27 27 27 27 27 25 20 18 19 19 18 19 19 20 17 15 19 21
7 12 14 12 6 7 5 7 15 13 15 14 13 15 17 14 13 11 13 10 13 11 3 14 20 13 10 19 23 20 16 14 15 19 20 20 22 26 28 28 28 28 25 20 19 19 18 18 19 19 18 15 19 22
13 14 13 8 8 5 8 14 12 14 13 10 11 21 20 16 14 10 8 14 11 11 14 4 5 19 19 9 10 19 23 20 17 15 13 16 20 19 20 25 28 29 28 27 24 22 20 19 19 19 20 22 22 24
15 13 8 5 5 10 15 13 13 10 11 7 15 25 23 17 13 11 12 9 12 13 10 13 13 2 5 17 19 11 6 13 21 21 18 17 15 13 15 17 18 18 19 22 26 29 31 31 30 29 28 25 24 23
Height
5738 5730 5721 5714 5705 5696 5687 5677 5667 5657 5647 5636 5626 5615 5603 5591 5579 5567 5554 5541 5530 5520 5507 5495 5487 5479 5471 5463 5457 5452 5445 5440 5435 5430 5425 5420 5417 5413 5410 5406 5403 5401 5399 5397 5396 5396 5397 5395 5397 5399 5401 5403 5405 5407
5731 5722 5713 5706 5698 5689 5680 5670 5660 5651 5641 5631 5620 5608 5596 5585 5573 5562 5549 5536 5524 5513 5499 5490 5482 5474 5467 5460 5453 5446 5439 5432 5428 5423 5418 5415 5411 5407 5404 5402 5399 5396 5393 5392 5391 5389 5387 5387 5388 5390 5391 5392 5395 5398
5723 5714 5705 5696 5689 5681 5672 5663 5653 5644 5634 5624 5613 5601 5589 5578 5567 5555 5544 5531 5520 5510 5496 5486 5476 5469 5460 5455 5448 5442 5435 5428 5422 5416 5412 5408 5404 5400 5397 5395 5392 5389 5385 5383 5382 5379 5378 5378 5378 5378 5380 5382 5384 5386
5714 5706 5697 5689 5680 5672 5663 5653 5645 5636 5627 5617 5606 5594 5582 5570 5560 5548 5536 5523 5512 5501 5492 5483 5470 5463 5455 5448 5441 5435 5429 5422 5416 5411 5404 5399 5394 5389 5386 5385 5382 5379 5376 5372 5371 5369 5367 5366 5367 5367 5368 5370 5372 5374
5705 5696 5688 5680 5671 5663 5654 5644 5635 5627 5618 5607 5597 5586 5575 5564 5552 5541 5529 5517 5505 5495 5484 5473 5466 5457 5449 5442 5435 5428 5421 5415 5408 5402 5396 5389 5384 5377 5372 5371 5370 5366 5363 5360 5358 5356 5355 5354 5354 5354 5355 5356 5358 5361
5693 5686 5678 5670 5663 5653 5644 5636 5628 5620 5610 5599 5588 5577 5567 5556 5544 5533 5522 5510 5497 5487 5478 5469 5457 5447 5441 5433 5426 5418 5410 5403 5396 5388 5382 5377 5371 5365 5356 5356 5356 5352 5349 5346 5344 5343 5342 5341 5341 5341 5341 5342 5344 5347
5683 5676 5668 5661 5654 5645 5636 5628 5619 5610 5601 5591 5580 5569 5559 5547 5536 5525 5514 5500 5489 5479 5470 5460 5452 5442 5432 5423 5414 5407 5398 5390 5383 5375 5369 5361 5356 5351 5343 5339 5338 5335 5333 5332 5330 5330 5330 5329 5329 5330 5330 5330 5331 5333
5673 5665 5659 5652 5644 5636 5628 5620 5611 5601 5592 5581 5570 5560 5550 5539 5527 5516 5504 5493 5481 5471 5460 5450 5441 5431 5421 5412 5403 5393 5384 5376 5368 5360 5353 5346 5340 5333 5328 5324 5322 5320 5318 5318 5318 5318 5318 5318 5318 5319 5320 5320 5320 5322
5664 5656 5649 5641 5635 5627 5619 5611 5602 5592 5582 5572 5562 5552 5541 5531 5520 5509 5496 5484 5472 5464 5449 5439 5428 5418 5407 5398 5387 5376 5368 5357 5348 5342 5335 5329 5322 5317 5313 5310 5308 5308 5307 5306 5307 5307 5308 5309 5310 5310 5310 5311 5311 5312
5655 5646 5639 5632 5625 5619 5611 5601 5592 5583 5574 5562 5552 5541 5530 5520 5508 5498 5483 5472 5459 5450 5438 5428 5416 5405 5394 5382 5370 5360 5348 5339 5328 5325 5317 5312 5307 5305 5302 5300 5299 5298 5298 5297 5297 5298 5299 5300 5301 5302 5302 5303 5303 5304
5646 5637 5631 5624 5617 5610 5602 5593 5583 5573 5562 5552 5541 5531 5520 5509 5499 5484 5470 5458 5446 5436 5425 5414 5403 5391 5379 5367 5355 5344 5332 5322 5313 5309 5304 5300 5297 5295 5293 5291 5290 5288 5288 5288 5287 5288 5289 5290 5291 5292 5294 5295 5296 5297
5637 5629 5622 5615 5607 5600 5591 5582 5572 5562 5551 5542 5531 5520 5509 5497 5484 5472 5458 5446 5432 5421 5410 5397 5388 5376 5363 5350 5340 5327 5319 5307 5301 5295 5292 5289 5287 5286 5284 5283 5281 5280 5279 5279 5279 5278 5279 5280 5282 5283 5285 5286 5288 5290
5627 5620 5613 5605 5597 5589 5581 5570 5561 5551 5541 5532 5521 5510 5497 5486 5472 5459 5449 5438 5425 5411 5400 5389 5376 5359 5345 5334 5322 5312 5303 5295 5289 5286 5282 5280 5278 5276 5275 5274 5273 5273 5272 5272 5271 5271 5271 5271 5272 5274 5276 5278 5280 5282
5617 5610 5602 5595 5587 5578 5570 5560 5550 5540 5530 5520 5510 5500 5489 5473 5461 5449 5437 5424 5412 5399 5386 5371 5357 5344 5330 5318 5307 5297 5290 5284 5278 5276 5274 5271 5269 5267 5266 5266 5265 5264 5263 5263 5262 5262 5263 5263 5264 5265 5267 5269 5271 5273
5606 5599 5592 5584 5576 5568 5560 5550 5540 5531 5522 5512 5501 5489 5478 5465 5452 5440 5428 5416 5401 5387 5373 5359 5345 5332 5319 5307 5295 5285 5280 5274 5270 5266 5264 5261 5258 5256 5254 5253 5253 5252 5251 5250 5250 5250 5252 5252 5254 5256 5258 5260 5262 5265
5595 5589 5581 5574 5566 5558 5549 5540 5531 5522 5513 5504 5494 5481 5470 5459 5446 5432 5418 5405 5390 5376 5361 5347 5333 5317 5306 5295 5287 5278 5271 5264 5259 5255 5251 5248 5245 5242 5241 5239 5239 5238 5238 5237 5237 5237 5238 5239 5241 5243 5247 5250 5253 5256
5583 5578 5572 5564 5556 5547 5539 5529 5521 5513 5503 5493 5484 5474 5462 5449 5438 5426 5412 5397 5381 5367 5352 5336 5321 5308 5295 5285 5275 5268 5261 5254 5248 5242 5238 5234 5232 5230 5228 5227 5226 5226 5225 5225 5225 5226 5226 5228 5230 5232 5234 5238 5242 5246
5573 5567 5560 5553 5544 5536 5528 5520 5512 5503 5493 5484 5474 5463 5450 5439 5426 5413 5399 5384 5370 5355 5340 5327 5314 5301 5288 5277 5267 5260 5251 5243 5236 5231 5226 5223 5220 5218 5217 5216 5216 5216 5216 5216 5217 5217 5218 5219 5221 5222 5224 5227 5230 5234
5560 5556 5549 5541 5534 5526 5518 5513 5504 5493 5483 5473 5462 5452 5441 5429 5417 5403 5389 5374 5360 5345 5331 5314 5301 5290 5279 5270 5260 5251 5242 5235 5229 5222 5215 5211 5209 5206 5205 5205 5204 5205 5205 5206 5207 5208 5210 5210 5212 5213 5215 5217 5220 5223
5550 5545 5538 5532 5524 5516 5509 5503 5494 5486 5476 5465 5453 5442 5431 5419 5406 5392 5377 5363 5349 5334 5321 5308 5296 5285 5274 5262 5252 5244 5235 5228 5221 5214 5208 5202 5198 5195 5192 5191 5191 5191 5192 5193 5194 5195 5199 5199 5201 5204 5206 5208 5210 5213
5538 5533 5528 5522 5515 5509 5500 5492 5484 5476 5466 5456 5445 5434 5422 5408 5395 5382 5369 5355 5341 5329 5316 5301 5286 5275 5265 5255 5246 5237 5228 5221 5213 5206 5200 5195 5189 5185 5181 5178 5176 5176 5176 5178 5180 5180 5183 5185 5188 5192 5195 5197 5199 5202
5527 5522 5517 5511 5505 5500 5492 5483 5477 5468 5458 5447 5438 5426 5413 5400 5388 5376 5363 5351 5337 5322 5308 5296 5284 5272 5261 5251 5242 5232 5224 5215 5208 5200 5193 5187 5182 5177 5172 5170 5167 5165 5165 5165 5165 5167 5168 5170 5173 5179 5181 5184 5188 5191
5516 5512 5508 5503 5497 5490 5485 5476 5468 5459 5449 5440 5431 5419 5407 5394 5381 5368 5357 5344 5330 5316 5303 5289 5275 5266 5256 5246 5236 5228 5219 5210 5202 5195 5188 5182 5176 5171 5167 5164 5161 5158 5157 5157 5157 5157 5157 5159 5162 5166 5168 5172 5176 5181
5504 5503 5499 5494 5488 5481 5475 5468 5459 5451 5442 5433 5423 5412 5400 5387 5375 5364 5352 5339 5325 5311 5298 5286 5274 5263 5252 5242 5234 5226 5216 5206 5199 5191 5185 5179 5173 5168 5163 5159 5156 5154 5152 5152 5151 5151 5152 5152 5153 5155 5158 5162 5167 5171
5496 5495 5491 5485 5479 5473 5467 5459 5450 5443 5436 5425 5415 5405 5394 5383 5372 5360 5348 5336 5323 5310 5297 5285 5272 5262 5253 5243 5234 5224 5214 5204 5195 5188 5182 5176 5171 5166 5161 5157 5153 5150 5149 5149 5148 5147 5147 5147 5148 5149 5151 5154 5158 5162
5486 5485 5483 5477 5471 5466 5458 5451 5443 5436 5428 5419 5410 5399 5389 5378 5366 5355 5345 5334 5323 5311 5299 5287 5276 5264 5253 5244 5234 5224 5214 5203 5192 5184 5178 5173 5168 5164 5160 5156 5153 5151 5148 5146 5145 5145 5144 5144 5144 5145 5146 5148 5151 5155
5478 5476 5474 5469 5464 5459 5451 5444 5437 5430 5422 5413 5403 5393 5382 5371 5362 5352 5343 5333 5322 5311 5299 5288 5277 5265 5254 5243 5233 5223 5213 5203 5194 5185 5176 5170 5164 5161 5158 5155 5152 5150 5148 5145 5144 5143 5142 5142 5141 5141 5142 5144 5146 5149
5472 5469 5466 5463 5457 5451 5444 5437 5432 5424 5416 5406 5397 5387 5379 5370 5363 5354 5344 5333 5322 5311 5299 5289 5279 5268 5256 5246 5236 5225 5215 5205 5196 5188 5181 5173 5166 5160 5155 5152 5149 5148 5146 5144 5143 5141 5140 5139 5139 5139 5140 5141 5142 5144
5465 5463 5460 5455 5451 5445 5439 5433 5427 5419 5411 5402 5394 5386 5379 5370 5363 5353 5344 5335 5325 5315 5304 5294 5282 5270 5261 5251 5241 5230 5219 5208 5199 5189 5181 5173 5167 5162 5157 5153 5149 5147 5145 5143 5142 5140 5139 5138 5138 5138 5138 5139 5139 5141
5459 5457 5454 5449 5446 5441 5436 5430 5422 5415 5408 5401 5394 5386 5378 5369 5362 5354 5346 5338 5329 5319 5310 5299 5288 5277 5266 5255 5246 5237 5227 5217 5206 5197 5188 5180 5173 5166 5160 5155 5151 5148 5146 5145 5143 5141 5140 5139 5138 5138 5138 5138 5138 5140
5453 5451 5448 5445 5442 5438 5432 5426 5420 5413 5407 5400 5392 5385 5376 5369 5362 5356 5349 5341 5332 5323 5314 5305 5295 5284 5274 5263 5253 5244 5235 5226 5217 5208 5199 5191 5181 5174 5168 5162 5157 5153 5150 5148 5146 5145 5143 5142 5140 5139 5139 5139 5139 5140
5448 5447 5445 5443 5439 5434 5429 5424 5419 5413 5406 5400 5392 5384 5376 5370 5364 5358 5351 5343 5335 5328 5320 5311 5302 5293 5283 5274 5264 5254 5244 5235 5226 5218 5208 5200 5195 5188 5180 5173 5167 5162 5158 5155 5152 5150 5147 5145 5143 5142 5141 5140 5140 5141
5444 5443 5442 5440 5436 5432 5428 5424 5418 5413 5407 5400 5392 5384 5377 5372 5366 5359 5353 5346 5340 5333 5325 5317 5309 5300 5291 5282 5273 5264 5255 5246 5238 5229 5222 5214 5206 5199 5193 5186 5180 5174 5169 5165 5161 5157 5153 5150 5148 5146 5145 5144 5144 5145